Terug naar catalogus

DELTA 1 DEB

ActiefSSO
NORAD 13826·DEBRIS·🇺🇸 United States

Gelanceerd Mar 5, 1978 vanaf Vandenberg Space Force Base

Loading…

Volgende Passages (komende 24 uur)

TLE

VersSource: Space-Track

Epoch: Sep 14, 2026, 11:41 UTC

1 13826U 78026FV  26257.48723766  .00004478  00000-0  50671-3 0  9993
2 13826  98.2387 280.5601 0026037 165.2704 194.9275 14.86740651315552

Volg DELTA 1 DEB in realtime met AllMySat

Download on the App Store